Regional Weather Roundup
Issued by NWS Charleston, SC

Current Version | Previous Version | Graphics & Text | Print | Product List | Glossary On
Versions: 1 2 3 4 5 6 7 8 9 10 11 12 13 14 15 16 17 18 19 20 21 22 23 24 25 26 27 28 29 30 31 32 33 34 35 36 37 38 39 40 41 42 43 44 45 46 47 48 49 50
000
ASUS42 KCHS 180527
RWRCHS

REGIONAL WEATHER ROUNDUP
NATIONAL WEATHER SERVICE CHARLESTON SC
100 AM EDT SAT APR 18 2015

NOTE: "FAIR" INDICATES FEW OR NO CLOUDS BELOW 12,000 FEET WITH NO
SIGNIFICANT WEATHER AND/OR OBSTRUCTIONS TO VISIBILITY.

NOT ALL STATIONS ARE QUALITY CONTROLLED BY THE NATIONAL
WEATHER SERVICE. USE DATA WITH CAUTION...ESPECIALLY
DEWPOINT OBSERVATIONS.

SCZ027-030-031-034>040-042>050-180600-
...SOUTHEAST SOUTH CAROLINA...

CITY           SKY/WX    TMP DP  RH WIND       PRES   REMARKS
N CHARLESTON   CLOUDY    68  66  93 N5        29.99F
WATERFRONT PRK NOT AVBL
MOUNT PLEASANT FAIR      68  66  94 N3        29.99S FOG
PINOPOLIS      NOT AVBL
MONCKS CORNER  LGT RAIN  68  66  94 CALM      30.00S
SUMMERVILLE    RAIN      66  66 100 CALM      30.01F
BEAUFORT MCAS  CLOUDY    68  67  96 CALM      30.01R
BEAUFORT ARPT  CLOUDY    68  68 100 CALM      30.00R
HILTON HEAD IS CLOUDY    68  68 100 CALM      30.01S FOG
WALTERBORO     CLOUDY    64  64 100 CALM      30.01S FOG
ALLENDALE      LGT RAIN  68  68 100 CALM      30.01S

...SOUTHERN MIDLANDS AND PEE DEE...

CITY           SKY/WX    TMP DP  RH WIND       PRES   REMARKS
GEORGETOWN     NOT AVBL
KINGSTREE      NOT AVBL
ORANGEBURG     CLOUDY    66  64  93 CALM      30.02S FOG
BARNWELL       RAIN      66  66 100 CALM      30.02F
AIKEN          RAIN      52  52 100 CALM      30.05F
MANNING        CLOUDY    64  63  94 CALM      30.00F FOG
COLUMBIA       CLOUDY    67  64  90 CALM      30.02S FOG
SUMTER         LGT RAIN  66  64  94 NW3       30.00S
FLORENCE       FOG       67  65  93 CALM      30.01S VSB 1
MYRTLE BEACH   CLOUDY    70  64  83 N5        30.01S
N MYRTLE BEACH CLOUDY    66  65  96 CALM      29.99F FOG

$$

GAZ063-065-086>088-099>101-113>116-118-119-134>141-150-180600-
...SOUTHEAST GEORGIA...

CITY           SKY/WX    TMP DP  RH WIND       PRES   REMARKS
SAVANNAH ARPT  CLOUDY    68  66  93 W3        30.01S
HUNTER AAF     LGT RAIN  68  68 100 W2        29.99S
FORT STEWART   CLOUDY    68  66  94 CALM      29.99S
STATESBORO     LGT RAIN  66  66 100 CALM      30.02S
SYLVANIA       DRIZZLE   66  66 100 CALM      30.02F
CLAXTON        HVY RAIN  64  64 100 CALM      30.02S

...CSRA...CENTRAL AND FAR SOUTHEAST GEORGIA...

CITY           SKY/WX    TMP DP  RH WIND       PRES   REMARKS
THOMSON        CLOUDY    65  65 100 CALM      30.07F
AUGUSTA-BUSH   RAIN      65  64  97 CALM      30.01F FOG
AUGUSTA-DANIEL LGT RAIN  66  64  93 NW5       30.03F
SWAINSBORO     RAIN      66  66 100 CALM      30.04R
VIDALIA        RAIN      66  66 100 E5        30.02S
EASTMAN        LGT RAIN  66  66 100 E3        30.02F
HAZLEHURST     LGT RAIN  68  68 100 E5        29.98F
ALMA           CLOUDY    68  67  96 E5        29.99F
WAYCROSS       MOCLDY    72  70  95 CALM      30.00S
JESUP          MOCLDY    70  68  94 CALM      30.00F
BAXLEY         LGT RAIN  70  68  94 CALM      30.00F
BRUNSWICK      CLOUDY    68  64  88 CALM      30.03R
SAINT SIMONS   CLOUDY    68  66  93 SW5       30.01R

$$

SCZ027-028-034-036>038-045-046-048>050-GAZ119-141-180600-
...LAKE AND SUPPLEMENTAL COASTAL OBSERVATIONS...

STATION/POSITION TIME  TEMP    WIND        PRES    WAVE   SWELL
                       AIR SEA DIR/SP/G            HT/PER HT/PER/DIR
                 (UTC) (F)     (DEG/KT/KT) (MB)    (FT/S) (FT/S/D)
UPR LAKE MARION  NOT AVBL
WINYAH BAY       0445   67     330/  2     1015.0S
LAKE MURRAY      0400   65      10/  1/  2 1016.3F
ACE BASIN NERRS  NOT AVBL
FORT PULASKI     0406   69 71  160/  1/  2 1016.6
SAPELO ISLAND    0500   68     210/  3     1016.0S

$$

ANZ835-935-AMZ111-154-330-350-352-354-370-450-454-472-180600-
...C-MAN AND BUOY OBSERVATIONS...

STATION/POSITION TIME  TEMP    WIND        PRES    WAVE   SWELL
                       AIR SEA DIR/SP/G            HT/PER HT/PER/DIR
                 (UTC) (F)     (DEG/KT/KT) (MB)    (FT/S) (FT/S/D)
BUOY 41004       0450   71 74   20/  8/  8 1014.6F   4/ 8   3/ 8
BUOY 41008       0450   66 67  220/  4/  4 1016.4R   3/10   3/ 60/10
FOLLY BEACH CMAN 0500   67     340/  3/  3 1015.4F
CAPERS NEARSHORE NOT AVBL
FRIPP NEARSHORE  0400   68      CALM  /  2 1015.7F


STATION/POSITION TIME  TEMP    WIND        PRES    WAVE   SWELL
                       AIR SEA DIR/SP/G            HT/PER HT/PER/DIR
                 (UTC) (F)     (DEG/KT/KT) (MB)    (FT/S) (FT/S/D)
5E ST. MARYS GA  0421      70                N/A     2/11   2/ 80/11
FRYING PAN BUOY  0450   74 73   80/  8/ 10 1015.7F   5/ 8   5/120/ 8
BUOY 41025       0450   72 74  180/  6/  8 1015.8F   5/ 8   5/ 80/ 8
CAPE LOOKOUT NC  0500   68      30/  1/  2 1015.4F
BUOY 41002       0450   72 72  180/  2/  2 1015.3F   6/ 8   5/ 80/ 8
BUOY 41010       0420   77 78  180/ 10/ 12 1016.4F
ST AUGUSTINE FL  0500   67 69  220/  6/  6 1016.7F


$$


USA.gov is the U.S. government's official web portal to all federal, state and local government web resources and services.